CW8845 Weather Reports


Display with metric or nautical units.
time (UTC)temp
F
wind
direction
speed
MPH
gust
MPH
rain 1hr
in
rain 24hr
in
rain mn
in
humidity
%
barometer
mb
20260831203613 85 228 6.0 10.0 0.00 0.00 0.00 24 1014.9
20260831202642 84 216 5.0 13.0 0.00 0.00 0.00 23 1015.0
20260831201650 84 246 3.0 9.0 0.00 0.00 0.00 24 1015.3
20260831200639 84 173 4.0 14.0 0.00 0.00 0.00 22 1015.4
20260831195624 84 163 5.0 12.0 0.00 0.00 0.00 23 1015.5
20260831194615 83 208 6.0 11.0 0.00 0.00 0.00 24 1015.6
20260831193624 83 201 5.0 12.0 0.00 0.00 0.00 22 1015.9
20260831192614 84 220 5.0 9.0 0.00 0.00 0.00 22 1015.9
20260831191628 83 232 5.0 11.0 0.00 0.00 0.00 22 1016.1
20260831190619 83 222 4.0 9.0 0.00 0.00 0.00 21 1016.2
20260831185620 83 214 3.0 9.0 0.00 0.00 0.00 22 1016.2
20260831184614 82 199 4.0 8.0 0.00 0.00 0.00 22 1016.2
20260831183623 82 227 2.0 4.0 0.00 0.00 0.00 23 1016.4
20260831182614 81 256 1.0 8.0 0.00 0.00 0.00 22 1016.6
20260831181624 80 257 1.0 6.0 0.00 0.00 0.00 23 1016.9
20260831180622 80 236 2.0 7.0 0.00 0.00 0.00 22 1017.0
20260831175627 79 268 1.0 4.0 0.00 0.00 0.00 23 1017.1
20260831174617 78 291 2.0 5.0 0.00 0.00 0.00 23 1017.0
20260831173628 78 360 2.0 3.0 0.00 0.00 0.00 23 1017.0
20260831172620 76 295 0.0 5.0 0.00 0.00 0.00 25 1017.2
20260831171615 76 290 2.0 5.0 0.00 0.00 0.00 27 1017.2
20260831170647 75 298 2.0 4.0 0.00 0.00 0.00 27 1017.0
20260831165629 74 344 2.0 4.0 0.00 0.00 0.00 28 1017.2
20260831164621 73 343 2.0 6.0 0.00 0.00 0.00 29 1017.3
20260831163616 71 336 2.0 6.0 0.00 0.00 0.00 32 1017.3
20260831162648 70 342 3.0 6.0 0.00 0.00 0.00 34 1017.2
20260831161617 69 12 3.0 8.0 0.00 0.00 0.00 33 1017.2
20260831160627 68 355 4.0 9.0 0.00 0.00 0.00 32 1017.3
20260831155614 67 328 4.0 9.0 0.00 0.00 0.00 33 1017.4
20260831154626 65 355 4.0 8.0 0.00 0.00 0.00 33 1017.4
20260831153617 64 342 3.0 6.0 0.00 0.00 0.00 35 1017.4
20260831152632 63 15 3.0 9.0 0.00 0.00 0.00 37 1017.5
20260831151622 62 355 2.0 9.0 0.00 0.00 0.00 38 1017.6
20260831150635 60 345 3.0 6.0 0.00 0.00 0.00 40 1017.6
20260831145617 59 351 2.0 6.0 0.00 0.00 0.00 44 1017.6
20260831144613 57 5 5.0 6.0 0.00 0.00 0.00 45 1017.5
20260831143623 56 18 3.0 5.0 0.00 0.00 0.00 50 1017.5
20260831142615 54 5 2.0 8.0 0.00 0.00 0.00 53 1017.6
20260831141626 52 38 2.0 5.0 0.00 0.00 0.00 54 1017.5
20260831140621 50 38 2.0 4.0 0.00 0.00 0.00 56 1017.5
20260831135625 48 38 0.0 4.0 0.00 0.00 0.00 62 1017.5
20260831134616 48 38 1.0 4.0 0.00 0.00 0.00 63 1017.6
20260831133627 47 38 2.0 5.0 0.00 0.00 0.00 62 1017.5
20260831132643 47 38 3.0 5.0 0.00 0.00 0.00 61 1017.5
20260831131613 47 38 2.0 5.0 0.00 0.00 0.00 63 1017.5
20260831130624 46 38 1.0 6.0 0.00 0.00 0.00 66 1017.6
20260831125627 45 36 3.0 6.0 0.00 0.00 0.00 67 1017.5
20260831124643 46 36 2.0 5.0 0.00 0.00 0.00 65 1017.5
20260831123614 46 35 2.0 5.0 0.00 0.00 0.00 65 1017.5
20260831122625 46 35 2.0 4.0 0.00 0.00 0.00 66 1017.5
20260831121620 46 35 1.0 5.0 0.00 0.00 0.00 65 1017.5
20260831120613 47 34 1.0 4.0 0.00 0.00 0.00 63 1017.5
20260831115635 47 34 2.0 5.0 0.00 0.00 0.00 62 1017.5
20260831114625 48 34 2.0 4.0 0.00 0.00 0.00 61 1017.5
20260831113612 48 34 1.0 3.0 0.00 0.00 0.00 62 1017.6
20260831112625 47 34 3.0 5.0 0.00 0.00 0.00 62 1017.6
20260831111615 48 35 1.0 4.0 0.00 0.00 0.00 61 1017.7
20260831110626 47 34 3.0 4.0 0.00 0.00 0.00 62 1017.5
20260831105650 47 34 1.0 4.0 0.00 0.00 0.00 64 1017.8
20260831104622 47 34 2.0 4.0 0.00 0.00 0.00 63 1017.8
20260831103613 48 34 0.0 1.0 0.00 0.00 0.00 61 1017.8
20260831102623 49 34 2.0 6.0 0.00 0.00 0.00 61 1017.7
20260831101615 49 35 2.0 4.0 0.00 0.00 0.00 61 1017.8
20260831100644 48 35 1.0 4.0 0.00 0.00 0.00 63 1017.6
20260831095625 47 35 1.0 3.0 0.00 0.00 0.00 66 1017.5
20260831094637 47 35 3.0 5.0 0.00 0.00 0.00 67 1017.5
20260831093625 47 34 2.0 5.0 0.00 0.00 0.00 67 1017.5
20260831092640 47 33 4.0 5.0 0.00 0.00 0.00 65 1017.4
20260831091629 49 34 2.0 5.0 0.00 0.00 0.00 62 1017.4
20260831090640 49 34 2.0 4.0 0.00 0.00 0.00 63 1017.3
20260831085641 49 34 2.0 3.0 0.00 0.00 0.00 63 1017.4
20260831084616 50 34 0.0 2.0 0.00 0.00 0.00 61 1017.3
20260831083626 51 34 0.0 2.0 0.00 0.00 0.00 59 1017.2
20260831082615 52 34 0.0 1.0 0.00 0.00 0.00 58 1017.3
20260831081625 52 34 0.0 0.0 0.00 0.00 0.00 58 1017.4
20260831080620 52 34 0.0 0.0 0.00 0.00 0.00 57 1017.5
20260831075623 52 34 0.0 3.0 0.00 0.00 0.00 58 1017.4
20260831074614 52 34 1.0 3.0 0.00 0.00 0.00 56 1017.4
20260831073625 53 34 1.0 4.0 0.00 0.00 0.00 55 1017.4
20260831072641 53 34 1.0 4.0 0.00 0.00 0.00 53 1017.4
20260831071629 53 32 1.0 3.0 0.00 0.00 0.00 53 1017.4
20260831070641 54 31 2.0 4.0 0.00 0.00 0.00 52 1017.5
20260831065623 54 31 2.0 5.0 0.00 0.00 0.00 51 1017.5
20260831064618 55 31 1.0 4.0 0.00 0.00 0.00 50 1017.6
20260831063630 56 31 1.0 3.0 0.00 0.00 0.00 48 1017.6
20260831062621 57 31 1.0 3.0 0.00 0.00 0.00 46 1017.5
20260831061653 57 31 2.0 4.0 0.00 0.00 0.00 46 1017.6
20260831060649 56 31 2.0 3.0 0.00 0.00 0.00 47 1017.6
20260831055615 56 31 1.0 2.0 0.00 0.00 0.00 48 1017.6
20260831054626 57 31 0.0 3.0 0.00 0.00 0.00 48 1017.6
20260831053618 57 31 1.0 3.0 0.00 0.00 0.00 47 1017.6
20260831052629 58 31 2.0 3.0 0.00 0.00 0.00 46 1017.6
20260831051625 58 31 1.0 2.0 0.00 0.00 0.00 45 1017.6
20260831050616 59 31 0.0 2.0 0.00 0.00 0.00 44 1017.5
20260831045619 59 31 2.0 3.0 0.00 0.00 0.00 43 1017.5
20260831044615 59 31 0.0 2.0 0.00 0.00 0.00 43 1017.5
20260831043646 60 31 1.0 2.0 0.00 0.00 0.00 43 1017.4
20260831042617 60 31 1.0 3.0 0.00 0.00 0.00 42 1017.4
20260831041628 60 31 2.0 4.0 0.00 0.00 0.00 43 1017.4
20260831040623 60 31 2.0 4.0 0.00 0.00 0.00 45 1017.4
20260831035626 61 31 2.0 3.0 0.00 0.02 0.00 43 1017.2
20260831034616 61 31 0.0 3.0 0.00 0.02 0.00 43 1017.0
20260831033626 62 31 1.0 3.0 0.00 0.02 0.00 43 1017.0
20260831032622 62 32 0.0 4.0 0.00 0.02 0.00 42 1016.9
20260831031613 62 26 1.0 3.0 0.00 0.02 0.00 42 1016.8
20260831030622 63 26 0.0 3.0 0.00 0.02 0.00 42 1016.4
20260831025624 64 26 1.0 5.0 0.00 0.02 0.00 42 1016.3
20260831024619 65 11 1.0 4.0 0.00 0.02 0.00 41 1016.1
20260831023650 65 10 3.0 5.0 0.00 0.02 0.00 39 1015.9
20260831022640 67 5 2.0 4.0 0.00 0.02 0.00 37 1015.8
20260831021629 68 5 1.0 8.0 0.00 0.02 0.00 37 1015.7
20260831020620 70 344 2.0 5.0 0.00 0.02 0.00 35 1015.6
20260831015626 71 338 1.0 4.0 0.00 0.02 0.00 33 1015.6
20260831014618 72 342 2.0 6.0 0.00 0.02 0.00 29 1015.6
20260831013628 73 5 3.0 8.0 0.00 0.02 0.00 28 1015.6
20260831012623 74 9 3.0 9.0 0.00 0.02 0.00 27 1015.6
20260831011613 75 342 3.0 8.0 0.00 0.02 0.00 28 1015.5
20260831010644 75 312 4.0 6.0 0.00 0.02 0.00 27 1015.6
20260831005624 76 5 6.0 10.0 0.00 0.02 0.00 25 1015.6
20260831004612 76 360 3.0 8.0 0.00 0.02 0.00 26 1015.7
20260831003626 76 344 4.0 8.0 0.00 0.02 0.00 26 1015.8
20260831002638 76 308 1.0 6.0 0.00 0.02 0.00 26 1016.0
20260831001626 77 351 3.0 9.0 0.00 0.02 0.00 24 1015.9
20260831000617 77 16 3.0 8.0 0.00 0.02 0.00 24 1016.0
20260830235622 77 336 2.0 8.0 0.00 0.02 0.00 24 1016.0
20260830234612 77 5 4.0 9.0 0.00 0.02 0.00 23 1015.9
20260830233641 77 53 3.0 8.0 0.00 0.02 0.00 23 1015.9
20260830232629 77 304 3.0 8.0 0.00 0.02 0.00 24 1015.9
20260830231624 77 360 2.0 7.0 0.00 0.02 0.00 25 1016.0
20260830230634 77 291 2.0 9.0 0.00 0.02 0.00 24 1015.9
20260830225616 78 17 5.0 9.0 0.00 0.02 0.00 24 1015.9
20260830224626 78 345 5.0 9.0 0.00 0.02 0.00 23 1016.1
20260830223639 78 338 7.0 13.0 0.00 0.02 0.00 25 1016.1
20260830222627 77 283 2.0 10.0 0.00 0.02 0.00 25 1016.2
20260830221637 77 346 4.0 11.0 0.00 0.02 0.00 25 1016.2
20260830220646 77 292 4.0 13.0 0.00 0.02 0.00 24 1016.4
20260830215626 77 301 4.0 9.0 0.00 0.02 0.00 25 1016.5
20260830214621 77 315 4.0 10.0 0.00 0.02 0.00 26 1016.6
20260830213632 77 320 6.0 10.0 0.00 0.02 0.00 26 1016.6
20260830212621 77 24 3.0 12.0 0.00 0.02 0.00 26 1016.6
20260830211616 77 340 4.0 9.0 0.00 0.02 0.00 27 1016.7
20260830210625 77 295 4.0 9.0 0.00 0.02 0.00 28 1016.8
20260830205626 76 60 4.0 9.0 0.00 0.02 0.00 28 1016.8
20260830204617 76 344 3.0 10.0 0.00 0.02 0.00 28 1017.0